Regional Weather Roundup
Issued by NWS Little Rock, AR

Home | Current Version | Previous Version | Graphics & Text | Print | Product List | Glossary On
Versions: 1 2 3 4 5 6 7 8 9 10 11 12 13 14 15 16 17 18 19 20 21 22 23 24 25 26 27 28 29 30 31 32 33 34 35 36 37 38 39 40 41 42 43 44 45 46 47 48 49 50
922
ASUS44 KLZK 181405
RWRLZK

WEATHER ROUNDUP FOR ARKANSAS
NATIONAL WEATHER SERVICE LITTLE ROCK AR
800 AM CST WED JAN 18 2017

NOTE: "FAIR" INDICATES FEW OR NO CLOUDS BELOW 12,000 FEET WITH NO
SIGNIFICANT WEATHER AND/OR OBSTRUCTIONS TO VISIBILITY.

ARZ001-003-010-029-181500-
NORTHWEST ARKANSAS

CITY           SKY/WX    TMP DP  RH WIND       PRES   REMARKS
FAYETTEVILLE   CLOUDY    37  37 100 CALM      30.16F
FORT SMITH     CLOUDY    42  40  92 NE6       30.18S
HARRISON       FOG       37  37 100 SE3       30.20S VSB 1/4
BENTONVILLE    CLOUDY   N/A N/A N/A E5        30.16F
ROGERS         CLOUDY    37  36  96 E7        30.16F FOG
SILOAM SPGS    CLOUDY    37  34  87 E3        30.15F
HIGHFILL       FOG       37  37 100 NE8       30.15F VSB 1
SPRINGDALE     CLOUDY    37  37 100 CALM      30.17F
$$

ARZ004-005-016-181500-
NORTH CENTRAL ARKANSAS

CITY           SKY/WX    TMP DP  RH WIND       PRES   REMARKS
BATESVILLE     CLOUDY    39  37  93 E5        30.26R
FLIPPIN        CLOUDY    39  34  81 CALM      30.21R
MTN HOME       CLOUDY    37  37 100 CALM      30.22R FOG
$$

ARZ040-041-181500-
WEST CENTRAL ARKANSAS

CITY           SKY/WX    TMP DP  RH WIND       PRES   REMARKS
MENA           CLOUDY    46  45  93 E6        30.15S
MOUNT IDA      LGT RAIN  46  44  93 SE3       30.13F FOG
$$

ARZ009-017-025-026-028-181500-
NORTHEAST ARKANSAS

CITY           SKY/WX    TMP DP  RH WIND       PRES   REMARKS
CORNING        CLOUDY    41  39  93 NE6       30.25S
JONESBORO      CLOUDY    43  39  86 CALM      30.25R
NEWPORT        CLOUDY    42  39  89 N7        30.25F
WALNUT RIDGE   CLOUDY    43  37  81 NE3       30.26R
BLYTHEVILLE    CLOUDY    44  41  89 CALM      30.25R
$$

ARZ022-023-033-042-044-181500-
CENTRAL ARKANSAS

CITY           SKY/WX    TMP DP  RH WIND       PRES   REMARKS
LITTLE ROCK    LGT RAIN  43  43 100 NE8       30.22F
N LITTLE ROCK    N/A     42  41  93 E6        30.23F
JACKSONVILLE   CLEAR     45  41  87 NE6       30.21F
SEARCY         CLOUDY    42  40  92 NE6       30.26S
HOT SPRINGS    LGT RAIN  46  44  93 NE8       30.18F
RUSSELLVILLE   CLOUDY    43  39  86 E6        30.19F
CLINTON        CLOUDY    41  39  93 CALM      30.24R
$$

ARZ036-181500-
EAST ARKANSAS

CITY           SKY/WX    TMP DP  RH WIND       PRES   REMARKS
WEST MEMPHIS   CLOUDY    46  42  86 N3        30.23R
$$

ARZ050-053-066-070-073-181500-
SOUTHWEST ARKANSAS

CITY           SKY/WX    TMP DP  RH WIND       PRES   REMARKS
ARKADELPHIA    LGT RAIN  46  45  96 NE7       30.19R
CAMDEN         RAIN      48  46  93 N6        30.18R
TEXARKANA      LGT RAIN  51  51 100 N3        30.15R
EL DORADO      HVY RAIN  49  48  97 VRB7      30.16R FOG
DE QUEEN       CLOUDY    49  49 100 E3        30.12S
$$

ARZ056-057-069-181500-
SOUTHEAST ARKANSAS

CITY           SKY/WX    TMP DP  RH WIND       PRES   REMARKS
PINE BLUFF     LGT RAIN  47  45  93 NE9       30.21S
STUTTGART      CLOUDY    45  37  76 N8        30.23R
MONTICELLO     LGT RAIN  50  47  89 E7        30.19R

$$






USA.gov is the U.S. government's official web portal to all federal, state and local government web resources and services.